Voltar ao catálogo

COSMOS 2251 DEB

AtivoLEO
NORAD 34823·DEBRIS·🇷🇺 Russia

Lançado Jun 16, 1993 de Plesetsk Cosmodrome

Loading…

Próximas Passagens (próximas 24 horas)

TLE

AtualizadoSource: Space-Track

Época: Sep 14, 2026, 13:19 UTC

1 34823U 93036ABN 26257.55524813  .00001166  00000-0  23273-3 0  9990
2 34823  74.0394 299.6307 0154024 313.7603  45.0895 14.55959263923941

Acompanhe COSMOS 2251 DEB em tempo real com AllMySat

Download on the App Store